QPF
0.01 0.02 0.02 0.01 0.01 0.01 0.02 0.02 0.01 0.02 0.02 0.05 0.05 0.06 0.07 0.10 0.12 0.09 0.05 0.04 0.04 0.06 0.07 0.06 0.04 0.03 0.02 0.02 0.03 0.03 0.05 0.06 0.06 0.07 0.08 0.09 0.09 0.08 0.07 0.06 0.06 0.08 0.07 0.05
0.03 0.02 0.01 0.01 0.01 0.01 0.01 0.01 0.01 0.02 0.02 0.05 0.08 0.06 0.06 0.07 0.06 0.04 0.03 0.03 0.03 0.04 0.03 0.03 0.04 0.04 0.05 0.04 0.03 0.04 0.05 0.06 0.06 0.07 0.07 0.06 0.08 0.08 0.07 0.06 0.07 0.08 0.09 0.07
0.04 0.02 0.02 0.01 0.01 0.01 0.01 0.01 0.01 0.02 0.02 0.04 0.12 0.10 0.07 0.07 0.06 0.03 0.02 0.03 0.03 0.03 0.03 0.04 0.07 0.09 0.07 0.06 0.07 0.07 0.06 0.05 0.04 0.05 0.06 0.05 0.06 0.08 0.08 0.07 0.07 0.07 0.07 0.09
0.03 0.03 0.03 0.02 0.01 0.02 0.04 0.04 0.03 0.02 0.03 0.05 0.15 0.12 0.09 0.05 0.04 0.04 0.03 0.03 0.02 0.03 0.05 0.08 0.10 0.10 0.09 0.06 0.06 0.07 0.06 0.05 0.05 0.04 0.06 0.07 0.08 0.08 0.08 0.08 0.07 0.07 0.06 0.07
0.04 0.04 0.04 0.05 0.04 0.03 0.05 0.06 0.04 0.04 0.03 0.06 0.12 0.14 0.13 0.06 0.05 0.05 0.04 0.04 0.04 0.04 0.05 0.06 0.07 0.08 0.07 0.05 0.04 0.06 0.06 0.06 0.05 0.04 0.05 0.06 0.06 0.08 0.07 0.08 0.08 0.06 0.06 0.07
0.03 0.03 0.04 0.05 0.07 0.05 0.05 0.11 0.06 0.05 0.05 0.08 0.11 0.15 0.15 0.09 0.06 0.04 0.04 0.04 0.05 0.07 0.08 0.08 0.07 0.07 0.08 0.07 0.05 0.06 0.06 0.06 0.06 0.06 0.05 0.05 0.05 0.08 0.09 0.08 0.09 0.09 0.07 0.05
0.05 0.05 0.04 0.05 0.06 0.06 0.09 0.12 0.09 0.06 0.05 0.08 0.09 0.08 0.09 0.10 0.08 0.05 0.05 0.05 0.06 0.08 0.11 0.09 0.09 0.09 0.11 0.14 0.12 0.08 0.07 0.07 0.08 0.08 0.09 0.09 0.07 0.07 0.07 0.07 0.08 0.09 0.08 0.08
0.07 0.08 0.07 0.07 0.08 0.09 0.10 0.18 0.14 0.10 0.08 0.07 0.06 0.06 0.07 0.09 0.09 0.08 0.08 0.07 0.05 0.05 0.06 0.09 0.12 0.14 0.16 0.13 0.13 0.11 0.09 0.09 0.09 0.10 0.10 0.11 0.11 0.10 0.09 0.10 0.10 0.09 0.10 0.11
0.08 0.09 0.10 0.10 0.11 0.11 0.11 0.19 0.20 0.14 0.12 0.07 0.05 0.05 0.05 0.06 0.07 0.08 0.07 0.06 0.05 0.04 0.06 0.13 0.17 0.15 0.17 0.15 0.12 0.11 0.08 0.07 0.07 0.09 0.10 0.09 0.09 0.09 0.09 0.09 0.09 0.10 0.11 0.12
0.13 0.14 0.12 0.13 0.14 0.13 0.13 0.14 0.15 0.13 0.09 0.06 0.06 0.06 0.04 0.04 0.05 0.06 0.07 0.06 0.05 0.05 0.06 0.11 0.18 0.18 0.17 0.16 0.13 0.10 0.11 0.09 0.09 0.12 0.11 0.10 0.09 0.08 0.08 0.08 0.09 0.09 0.10 0.10
0.20 0.15 0.13 0.16 0.18 0.11 0.09 0.12 0.14 0.09 0.05 0.05 0.06 0.05 0.05 0.06 0.05 0.03 0.04 0.04 0.05 0.05 0.05 0.07 0.09 0.15 0.20 0.20 0.17 0.14 0.13 0.12 0.09 0.10 0.11 0.11 0.09 0.10 0.10 0.11 0.10 0.10 0.10 0.10
0.24 0.18 0.16 0.15 0.12 0.08 0.11 0.16 0.15 0.14 0.11 0.07 0.07 0.06 0.05 0.05 0.04 0.02 0.02 0.03 0.06 0.07 0.06 0.06 0.08 0.11 0.15 0.19 0.18 0.15 0.11 0.11 0.11 0.10 0.10 0.09 0.10 0.11 0.12 0.12 0.11 0.11 0.12 0.10
0.22 0.22 0.18 0.13 0.10 0.08 0.11 0.17 0.20 0.13 0.11 0.09 0.05 0.05 0.05 0.05 0.04 0.04 0.04 0.05 0.07 0.09 0.09 0.07 0.08 0.10 0.11 0.13 0.16 0.16 0.14 0.12 0.10 0.09 0.10 0.10 0.10 0.10 0.09 0.10 0.10 0.10 0.09 0.08
0.21 0.20 0.14 0.11 0.09 0.09 0.12 0.14 0.19 0.14 0.08 0.07 0.04 0.03 0.04 0.04 0.04 0.07 0.08 0.07 0.08 0.10 0.09 0.08 0.09 0.10 0.12 0.12 0.12 0.14 0.15 0.15 0.13 0.13 0.12 0.12 0.11 0.11 0.10 0.11 0.11 0.11 0.11 0.11
0.19 0.19 0.13 0.10 0.07 0.08 0.11 0.15 0.14 0.10 0.08 0.04 0.02 0.02 0.02 0.02 0.03 0.06 0.09 0.07 0.08 0.10 0.10 0.10 0.11 0.12 0.14 0.15 0.15 0.17 0.19 0.19 0.16 0.15 0.16 0.19 0.19 0.18 0.19 0.17 0.14 0.14 0.13 0.11
0.12 0.13 0.09 0.07 0.06 0.05 0.08 0.13 0.10 0.06 0.04 0.02 0.02 0.03 0.03 0.02 0.02 0.03 0.04 0.05 0.06 0.08 0.09 0.10 0.11 0.11 0.11 0.14 0.16 0.15 0.15 0.16 0.16 0.15 0.16 0.20 0.23 0.21 0.19 0.20 0.21 0.20 0.16 0.12
0.09 0.10 0.06 0.05 0.06 0.03 0.04 0.08 0.08 0.04 0.03 0.02 0.02 0.03 0.04 0.04 0.03 0.03 0.03 0.04 0.04 0.05 0.06 0.08 0.10 0.10 0.10 0.11 0.13 0.15 0.15 0.14 0.15 0.16 0.16 0.17 0.17 0.17 0.15 0.14 0.13 0.11 0.10 0.10
0.07 0.05 0.05 0.05 0.03 0.02 0.02 0.03 0.04 0.03 0.03 0.02 0.02 0.02 0.02 0.03 0.04 0.03 0.03 0.04 0.04 0.04 0.05 0.05 0.06 0.09 0.08 0.07 0.07 0.09 0.11 0.13 0.13 0.14 0.14 0.13 0.13 0.11 0.10 0.09 0.08 0.07 0.06 0.06
0.05 0.04 0.04 0.03 0.02 0.03 0.05 0.06 0.06 0.05 0.05 0.05 0.04 0.04 0.03 0.02 0.03 0.03 0.03 0.03 0.04 0.05 0.05 0.05 0.06 0.06 0.06 0.08 0.07 0.06 0.06 0.06 0.07 0.07 0.08 0.10 0.10 0.10 0.10 0.11 0.10 0.09 0.09 0.08
0.07 0.06 0.04 0.04 0.04 0.05 0.06 0.07 0.07 0.07 0.08 0.09 0.09 0.08 0.04 0.02 0.02 0.02 0.02 0.02 0.03 0.04 0.04 0.04 0.04 0.04 0.05 0.06 0.08 0.09 0.08 0.07 0.07 0.06 0.06 0.06 0.07 0.08 0.09 0.09 0.09 0.07 0.06 0.06
0.08 0.08 0.07 0.06 0.06 0.06 0.06 0.06 0.06 0.07 0.08 0.08 0.08 0.06 0.04 0.03 0.02 0.02 0.02 0.01 0.01 0.01 0.02 0.02 0.02 0.02 0.02 0.02 0.05 0.06 0.07 0.08 0.07 0.06 0.06 0.05 0.04 0.05 0.06 0.07 0.07 0.06 0.06 0.06
0.07 0.08 0.07 0.06 0.05 0.05 0.05 0.05 0.04 0.04 0.04 0.06 0.08 0.07 0.04 0.03 0.02 0.02 0.02 0.01 0.01 0.01 0.01 0.00 0.00 0.00 0.00 0.00 0.01 0.01 0.01 0.02 0.03 0.03 0.03 0.03 0.03 0.03 0.04 0.04 0.04 0.04 0.04 0.04
0.07 0.06 0.06 0.05 0.05 0.04 0.05 0.05 0.04 0.03 0.03 0.02 0.03 0.03 0.03 0.02 0.02 0.01 0.01 0.01 0.01 0.01 0.01 0.01 0.01 0.01 0.01 0.01 0.01 0.01 0.01 0.02 0.02 0.02 0.03 0.03 0.03 0.03 0.03 0.03 0.03 0.03 0.03 0.03
0.07 0.06 0.06 0.06 0.05 0.05 0.05 0.06 0.05 0.03 0.03 0.02 0.02 0.01 0.01 0.01 0.01 0.01 0.01 0.01 0.01 0.02 0.02 0.02 0.01 0.02 0.01 0.01 0.01 0.03 0.03 0.03 0.03 0.03 0.03 0.03 0.04 0.04 0.04 0.04 0.03 0.03 0.03 0.02
0.08 0.07 0.06 0.06 0.06 0.06 0.05 0.04 0.03 0.03 0.03 0.02 0.01 0.01 0.01 0.01 0.01 0.01 0.01 0.01 0.02 0.03 0.03 0.01 0.00 0.00 0.00 0.00 0.01 0.02 0.02 0.02 0.01 0.02 0.03 0.02 0.02 0.02 0.02 0.03 0.03 0.02 0.02 0.01
0.07 0.07 0.08 0.08 0.08 0.07 0.05 0.04 0.03 0.02 0.02 0.02 0.01 0.01 0.01 0.01 0.01 0.01 0.02 0.02 0.02 0.03 0.03 0.01 0.00 0.00 0.00 0.00 0.00 0.01 0.03 0.03 0.01 0.01 0.01 0.02 0.01 0.01 0.01 0.01 0.01 0.00 0.00 0.00
0.07 0.07 0.08 0.08 0.08 0.05 0.04 0.03 0.03 0.02 0.02 0.02 0.02 0.01 0.01 0.01 0.01 0.01 0.02 0.03 0.03 0.03 0.03 0.02 0.01 0.01 0.01 0.01 0.01 0.01 0.02 0.02 0.01 0.01 0.01 0.02 0.01 0.01 0.01 0.01 0.00 0.00 0.00 0.00
MSLP
1001.88 1001.92 1002.11 1002.42 1002.81 1003.24 1003.63 1003.93 1004.10 1004.12 1004.01 1003.80 1003.55 1003.33 1003.18 1003.16 1003.30 1003.58 1003.98 1004.47 1005.01 1005.54 1006.05 1006.51 1006.92 1007.31 1007.68 1008.06 1008.46 1008.90 1009.36 1009.86 1010.36 1010.86 1011.36 1011.85 1012.33 1012.80 1013.27 1013.74 1014.22 1014.69 1015.15 1015.58
1002.04 1001.95 1001.94 1001.99 1002.09 1002.21 1002.31 1002.38 1002.40 1002.36 1002.29 1002.20 1002.13 1002.12 1002.19 1002.37 1002.64 1003.02 1003.46 1003.95 1004.47 1004.97 1005.46 1005.91 1006.35 1006.78 1007.21 1007.65 1008.11 1008.59 1009.09 1009.59 1010.10 1010.60 1011.09 1011.57 1012.06 1012.54 1013.03 1013.51 1014.00 1014.48 1014.94 1015.36
1002.34 1002.15 1001.98 1001.83 1001.68 1001.54 1001.40 1001.27 1001.15 1001.05 1000.99 1000.98 1001.04 1001.18 1001.40 1001.69 1002.05 1002.46 1002.89 1003.35 1003.81 1004.26 1004.71 1005.17 1005.63 1006.11 1006.60 1007.12 1007.66 1008.20 1008.74 1009.27 1009.79 1010.30 1010.79 1011.27 1011.76 1012.25 1012.75 1013.26 1013.75 1014.24 1014.69 1015.11
1002.72 1002.47 1002.18 1001.87 1001.54 1001.21 1000.88 1000.60 1000.37 1000.22 1000.15 1000.19 1000.33 1000.55 1000.84 1001.18 1001.56 1001.95 1002.34 1002.72 1003.11 1003.50 1003.91 1004.35 1004.84 1005.37 1005.93 1006.53 1007.15 1007.76 1008.36 1008.93 1009.48 1009.99 1010.49 1010.98 1011.47 1011.97 1012.48 1013.00 1013.50 1013.99 1014.44 1014.85
1003.09 1002.78 1002.43 1002.02 1001.57 1001.11 1000.67 1000.28 999.98 999.78 999.72 999.77 999.94 1000.20 1000.51 1000.86 1001.20 1001.53 1001.84 1002.14 1002.44 1002.77 1003.13 1003.56 1004.06 1004.63 1005.26 1005.94 1006.63 1007.32 1007.98 1008.59 1009.17 1009.71 1010.22 1010.72 1011.22 1011.72 1012.24 1012.76 1013.26 1013.75 1014.19 1014.59
1003.33 1002.99 1002.60 1002.13 1001.62 1001.10 1000.60 1000.16 999.83 999.62 999.56 999.63 999.81 1000.07 1000.38 1000.69 1000.98 1001.24 1001.46 1001.66 1001.87 1002.12 1002.44 1002.84 1003.34 1003.95 1004.63 1005.36 1006.12 1006.87 1007.59 1008.26 1008.87 1009.44 1009.97 1010.48 1010.99 1011.50 1012.02 1012.54 1013.04 1013.51 1013.94 1014.31
1003.37 1003.01 1002.59 1002.11 1001.59 1001.05 1000.55 1000.12 999.80 999.62 999.57 999.66 999.86 1000.11 1000.40 1000.67 1000.90 1001.07 1001.21 1001.31 1001.43 1001.60 1001.85 1002.22 1002.71 1003.31 1004.02 1004.79 1005.60 1006.40 1007.16 1007.88 1008.53 1009.14 1009.70 1010.23 1010.75 1011.28 1011.80 1012.31 1012.81 1013.27 1013.67 1014.02
1003.19 1002.81 1002.39 1001.91 1001.42 1000.91 1000.46 1000.07 999.80 999.67 999.67 999.79 1000.01 1000.27 1000.54 1000.77 1000.94 1001.04 1001.08 1001.10 1001.12 1001.20 1001.38 1001.68 1002.13 1002.71 1003.40 1004.18 1005.01 1005.84 1006.65 1007.41 1008.11 1008.76 1009.36 1009.93 1010.48 1011.02 1011.55 1012.07 1012.55 1013.00 1013.38 1013.70
1002.84 1002.44 1002.02 1001.58 1001.13 1000.70 1000.31 1000.01 999.82 999.76 999.83 1000.00 1000.24 1000.51 1000.77 1000.97 1001.09 1001.12 1001.08 1001.00 1000.93 1000.91 1000.99 1001.20 1001.57 1002.09 1002.74 1003.50 1004.32 1005.17 1006.00 1006.80 1007.56 1008.26 1008.92 1009.54 1010.13 1010.70 1011.26 1011.78 1012.27 1012.70 1013.07 1013.37
1002.39 1001.99 1001.60 1001.21 1000.83 1000.49 1000.19 999.99 999.89 999.92 1000.05 1000.28 1000.56 1000.84 1001.09 1001.26 1001.33 1001.30 1001.18 1001.01 1000.83 1000.69 1000.66 1000.76 1001.02 1001.44 1002.02 1002.73 1003.52 1004.36 1005.22 1006.06 1006.87 1007.64 1008.37 1009.06 1009.71 1010.33 1010.92 1011.47 1011.97 1012.41 1012.77 1013.07
1001.96 1001.60 1001.26 1000.94 1000.65 1000.40 1000.21 1000.10 1000.10 1000.20 1000.39 1000.66 1000.97 1001.26 1001.49 1001.63 1001.65 1001.56 1001.36 1001.09 1000.80 1000.55 1000.39 1000.35 1000.49 1000.80 1001.28 1001.91 1002.66 1003.48 1004.35 1005.24 1006.11 1006.95 1007.76 1008.53 1009.26 1009.95 1010.59 1011.18 1011.70 1012.16 1012.55 1012.85
1001.66 1001.37 1001.12 1000.89 1000.70 1000.54 1000.45 1000.43 1000.50 1000.66 1000.89 1001.18 1001.49 1001.77 1001.97 1002.07 1002.05 1001.89 1001.61 1001.25 1000.86 1000.49 1000.20 1000.04 1000.04 1000.23 1000.60 1001.15 1001.84 1002.65 1003.53 1004.45 1005.38 1006.30 1007.19 1008.05 1008.86 1009.63 1010.33 1010.98 1011.55 1012.05 1012.46 1012.80
1001.55 1001.37 1001.23 1001.12 1001.03 1000.98 1000.97 1001.02 1001.14 1001.32 1001.57 1001.85 1002.13 1002.37 1002.53 1002.58 1002.50 1002.27 1001.93 1001.49 1001.01 1000.55 1000.15 999.88 999.77 999.85 1000.13 1000.60 1001.24 1002.02 1002.90 1003.85 1004.83 1005.82 1006.80 1007.74 1008.63 1009.47 1010.24 1010.94 1011.57 1012.11 1012.58 1012.96
1001.64 1001.61 1001.61 1001.62 1001.65 1001.69 1001.76 1001.85 1001.99 1002.18 1002.40 1002.63 1002.86 1003.05 1003.15 1003.14 1003.01 1002.74 1002.34 1001.86 1001.32 1000.79 1000.33 999.98 999.79 999.79 999.99 1000.40 1000.99 1001.74 1002.62 1003.59 1004.61 1005.66 1006.69 1007.69 1008.65 1009.55 1010.38 1011.13 1011.80 1012.40 1012.91 1013.36
1001.89 1002.03 1002.19 1002.35 1002.49 1002.62 1002.74 1002.87 1003.01 1003.16 1003.33 1003.51 1003.67 1003.78 1003.82 1003.76 1003.58 1003.28 1002.87 1002.38 1001.83 1001.29 1000.80 1000.42 1000.19 1000.14 1000.30 1000.66 1001.22 1001.95 1002.81 1003.78 1004.81 1005.88 1006.94 1007.98 1008.97 1009.90 1010.77 1011.55 1012.27 1012.90 1013.46 1013.95
1002.25 1002.57 1002.89 1003.19 1003.45 1003.66 1003.83 1003.97 1004.10 1004.22 1004.33 1004.43 1004.51 1004.56 1004.54 1004.44 1004.24 1003.94 1003.55 1003.08 1002.57 1002.06 1001.60 1001.24 1001.02 1000.96 1001.10 1001.44 1001.96 1002.66 1003.49 1004.44 1005.45 1006.51 1007.56 1008.60 1009.59 1010.52 1011.39 1012.19 1012.91 1013.57 1014.16 1014.70
1002.67 1003.16 1003.63 1004.06 1004.42 1004.71 1004.92 1005.08 1005.19 1005.27 1005.33 1005.37 1005.38 1005.37 1005.31 1005.19 1005.00 1004.73 1004.39 1003.99 1003.56 1003.13 1002.74 1002.44 1002.26 1002.23 1002.37 1002.69 1003.19 1003.84 1004.63 1005.52 1006.49 1007.49 1008.50 1009.50 1010.45 1011.35 1012.20 1012.98 1013.69 1014.35 1014.95 1015.50
1003.11 1003.74 1004.34 1004.87 1005.33 1005.69 1005.95 1006.13 1006.23 1006.29 1006.30 1006.30 1006.27 1006.22 1006.14 1006.03 1005.86 1005.65 1005.39 1005.09 1004.77 1004.45 1004.16 1003.95 1003.83 1003.84 1004.00 1004.31 1004.77 1005.37 1006.10 1006.91 1007.80 1008.72 1009.66 1010.58 1011.47 1012.31 1013.10 1013.84 1014.53 1015.17 1015.76 1016.30
1003.57 1004.29 1004.99 1005.61 1006.14 1006.56 1006.87 1007.08 1007.19 1007.24 1007.24 1007.21 1007.16 1007.11 1007.04 1006.95 1006.84 1006.71 1006.54 1006.35 1006.15 1005.95 1005.78 1005.66 1005.61 1005.66 1005.83 1006.13 1006.55 1007.09 1007.73 1008.46 1009.25 1010.07 1010.91 1011.74 1012.55 1013.32 1014.05 1014.74 1015.38 1015.98 1016.54 1017.07
1004.07 1004.84 1005.59 1006.28 1006.86 1007.34 1007.69 1007.93 1008.07 1008.13 1008.14 1008.12 1008.08 1008.03 1007.99 1007.95 1007.90 1007.85 1007.78 1007.70 1007.61 1007.52 1007.46 1007.42 1007.44 1007.53 1007.70 1007.98 1008.35 1008.82 1009.38 1010.01 1010.69 1011.42 1012.16 1012.90 1013.63 1014.33 1015.00 1015.64 1016.23 1016.79 1017.32 1017.80
1004.63 1005.41 1006.18 1006.89 1007.51 1008.02 1008.41 1008.69 1008.86 1008.96 1009.00 1009.00 1008.98 1008.97 1008.97 1008.98 1008.99 1009.01 1009.03 1009.05 1009.06 1009.06 1009.08 1009.11 1009.17 1009.29 1009.46 1009.71 1010.03 1010.43 1010.91 1011.45 1012.05 1012.68 1013.34 1014.01 1014.67 1015.32 1015.95 1016.54 1017.10 1017.62 1018.10 1018.55
1005.26 1006.02 1006.77 1007.48 1008.11 1008.64 1009.06 1009.37 1009.58 1009.71 1009.79 1009.83 1009.85 1009.88 1009.92 1009.98 1010.05 1010.14 1010.23 1010.32 1010.40 1010.47 1010.54 1010.62 1010.72 1010.85 1011.01 1011.23 1011.51 1011.86 1012.27 1012.75 1013.28 1013.85 1014.45 1015.07 1015.70 1016.31 1016.91 1017.47 1018.01 1018.50 1018.95 1019.34
1005.95 1006.66 1007.37 1008.05 1008.67 1009.20 1009.63 1009.96 1010.20 1010.37 1010.49 1010.57 1010.63 1010.71 1010.79 1010.90 1011.02 1011.15 1011.29 1011.43 1011.57 1011.69 1011.81 1011.92 1012.03 1012.17 1012.33 1012.53 1012.78 1013.10 1013.47 1013.90 1014.39 1014.93 1015.51 1016.10 1016.71 1017.32 1017.90 1018.46 1018.98 1019.45 1019.86 1020.22
1006.66 1007.30 1007.96 1008.59 1009.17 1009.68 1010.10 1010.45 1010.71 1010.91 1011.06 1011.18 1011.29 1011.40 1011.53 1011.67 1011.83 1012.01 1012.19 1012.37 1012.54 1012.70 1012.85 1012.98 1013.12 1013.27 1013.43 1013.63 1013.88 1014.18 1014.54 1014.96 1015.44 1015.97 1016.54 1017.14 1017.75 1018.35 1018.94 1019.50 1020.00 1020.45 1020.84 1021.15
1007.36 1007.93 1008.51 1009.08 1009.61 1010.08 1010.48 1010.82 1011.09 1011.30 1011.48 1011.64 1011.78 1011.94 1012.10 1012.29 1012.49 1012.70 1012.91 1013.13 1013.33 1013.52 1013.70 1013.87 1014.03 1014.20 1014.39 1014.61 1014.87 1015.18 1015.55 1015.98 1016.47 1017.01 1017.59 1018.19 1018.81 1019.42 1020.00 1020.55 1021.04 1021.47 1021.82 1022.08
1008.03 1008.51 1009.02 1009.51 1009.98 1010.40 1010.77 1011.08 1011.35 1011.57 1011.77 1011.96 1012.14 1012.33 1012.53 1012.76 1012.99 1013.24 1013.50 1013.75 1013.99 1014.22 1014.43 1014.64 1014.84 1015.05 1015.28 1015.53 1015.83 1016.17 1016.56 1017.01 1017.51 1018.06 1018.65 1019.25 1019.86 1020.46 1021.03 1021.55 1022.01 1022.40 1022.71 1022.93
1008.63 1009.05 1009.48 1009.90 1010.30 1010.66 1010.99 1011.28 1011.54 1011.77 1011.98 1012.19 1012.41 1012.64 1012.89 1013.15 1013.43 1013.72 1014.01 1014.30 1014.59 1014.86 1015.13 1015.39 1015.64 1015.90 1016.17 1016.47 1016.81 1017.18 1017.60 1018.07 1018.59 1019.14 1019.71 1020.30 1020.88 1021.44 1021.96 1022.44 1022.84 1023.18 1023.43 1023.60
Thickness
5732 5744 5749 5747 5748 5748 5740 5734 5725 5730 5734 5742 5751 5756 5759 5761 5760 5762 5762 5761 5761 5759 5759 5757 5756 5755 5754 5752 5750 5748 5744 5741 5739 5738 5737 5736 5735 5734 5733 5731 5730 5728 5727 5725
5724 5739 5743 5741 5747 5749 5746 5744 5740 5738 5735 5749 5753 5755 5755 5756 5757 5757 5758 5760 5760 5760 5758 5757 5756 5755 5753 5751 5750 5747 5744 5741 5739 5738 5736 5736 5735 5733 5731 5729 5728 5726 5724 5723
5704 5724 5728 5717 5734 5739 5741 5745 5743 5731 5735 5744 5742 5746 5749 5752 5753 5754 5756 5758 5758 5758 5758 5758 5757 5755 5752 5750 5748 5745 5742 5741 5739 5738 5736 5735 5734 5731 5730 5728 5726 5724 5723 5722
5694 5702 5691 5714 5739 5743 5738 5738 5742 5740 5740 5742 5741 5743 5747 5751 5751 5751 5753 5755 5756 5757 5757 5757 5756 5754 5752 5749 5746 5743 5741 5740 5739 5737 5736 5734 5732 5730 5729 5727 5725 5723 5722 5721
5680 5682 5694 5716 5728 5731 5725 5720 5733 5733 5734 5736 5738 5739 5739 5746 5748 5749 5751 5752 5754 5756 5756 5755 5753 5752 5749 5746 5744 5741 5740 5739 5739 5737 5734 5732 5730 5729 5728 5726 5724 5722 5721 5719
5679 5679 5679 5703 5725 5734 5727 5707 5726 5729 5729 5729 5730 5718 5724 5739 5743 5745 5747 5749 5751 5753 5753 5751 5750 5749 5746 5744 5742 5740 5741 5740 5739 5737 5735 5732 5731 5729 5728 5726 5723 5722 5720 5718
5674 5676 5685 5708 5721 5726 5700 5701 5721 5723 5724 5724 5720 5720 5725 5732 5736 5739 5740 5743 5747 5747 5747 5748 5748 5747 5744 5742 5742 5743 5742 5740 5738 5736 5734 5732 5729 5728 5726 5724 5721 5719 5717 5716
5667 5667 5675 5705 5710 5703 5701 5712 5716 5717 5718 5718 5718 5720 5722 5724 5728 5730 5731 5735 5739 5740 5741 5744 5745 5745 5743 5741 5743 5743 5741 5738 5736 5735 5733 5731 5727 5725 5723 5721 5717 5714 5712 5711
5667 5671 5685 5697 5700 5703 5707 5706 5708 5709 5712 5713 5712 5713 5715 5717 5719 5721 5724 5727 5730 5732 5735 5738 5740 5740 5739 5739 5740 5739 5736 5734 5733 5731 5729 5728 5724 5721 5718 5716 5713 5710 5707 5705
5665 5671 5681 5689 5693 5697 5700 5701 5703 5704 5706 5707 5706 5706 5708 5709 5711 5713 5716 5718 5721 5724 5727 5729 5733 5735 5735 5736 5736 5734 5731 5730 5728 5726 5724 5723 5720 5718 5715 5712 5709 5707 5704 5702
5658 5665 5673 5679 5683 5687 5690 5692 5693 5695 5697 5698 5698 5699 5700 5701 5702 5704 5707 5710 5713 5716 5719 5722 5726 5727 5730 5731 5730 5727 5725 5723 5722 5721 5719 5715 5712 5709 5709 5708 5707 5705 5703 5700
5650 5658 5662 5667 5676 5681 5681 5681 5682 5684 5685 5688 5690 5690 5691 5691 5693 5697 5699 5702 5705 5708 5711 5715 5718 5720 5723 5725 5724 5722 5719 5717 5715 5713 5711 5708 5705 5700 5698 5699 5698 5698 5697 5695
5652 5658 5660 5664 5668 5672 5672 5673 5674 5676 5677 5678 5680 5682 5682 5682 5684 5687 5690 5693 5696 5699 5703 5707 5710 5713 5716 5719 5719 5717 5714 5712 5710 5708 5705 5702 5699 5697 5691 5687 5687 5686 5684 5683
5647 5651 5652 5655 5657 5662 5666 5667 5668 5668 5669 5671 5671 5672 5673 5674 5675 5677 5679 5683 5686 5690 5694 5699 5703 5705 5709 5712 5713 5712 5710 5708 5705 5702 5699 5696 5693 5691 5687 5683 5678 5673 5671 5671
5641 5644 5644 5647 5650 5653 5656 5658 5657 5656 5658 5659 5661 5662 5663 5664 5665 5666 5669 5674 5677 5681 5684 5689 5692 5695 5700 5704 5705 5704 5702 5700 5698 5695 5691 5689 5686 5682 5678 5674 5669 5665 5661 5659
5634 5637 5638 5639 5641 5642 5645 5647 5647 5646 5648 5649 5650 5651 5652 5654 5655 5657 5659 5663 5665 5667 5671 5676 5680 5684 5689 5692 5693 5692 5691 5690 5688 5685 5682 5679 5676 5672 5668 5665 5660 5656 5652 5649
5627 5627 5629 5630 5633 5634 5636 5638 5638 5638 5639 5639 5640 5642 5643 5644 5645 5646 5648 5651 5654 5657 5660 5664 5667 5672 5677 5679 5680 5679 5678 5676 5676 5674 5670 5667 5663 5660 5657 5653 5649 5645 5640 5637
5623 5624 5626 5627 5627 5629 5629 5630 5631 5630 5631 5632 5634 5634 5634 5634 5634 5635 5637 5641 5645 5647 5649 5652 5656 5660 5663 5665 5666 5666 5665 5663 5662 5659 5656 5653 5650 5647 5644 5640 5636 5632 5628 5626
5616 5617 5619 5621 5622 5622 5622 5622 5623 5623 5624 5625 5626 5625 5625 5625 5626 5627 5629 5631 5633 5634 5635 5640 5643 5647 5648 5650 5652 5652 5651 5649 5647 5644 5642 5638 5635 5632 5629 5626 5622 5619 5616 5612
5607 5610 5611 5613 5615 5615 5615 5615 5616 5616 5616 5617 5617 5616 5616 5616 5617 5619 5620 5619 5619 5621 5624 5628 5631 5633 5634 5636 5637 5637 5636 5635 5633 5630 5627 5623 5620 5616 5614 5611 5608 5605 5601 5597
5599 5601 5603 5604 5605 5606 5607 5608 5608 5608 5608 5608 5608 5607 5607 5607 5609 5610 5611 5609 5610 5613 5616 5618 5619 5620 5621 5622 5623 5622 5622 5620 5617 5614 5611 5608 5605 5602 5599 5597 5594 5590 5586 5583
5592 5593 5595 5596 5597 5597 5598 5600 5601 5601 5600 5600 5600 5599 5599 5599 5599 5600 5600 5600 5601 5604 5606 5607 5608 5609 5610 5610 5609 5608 5607 5605 5602 5600 5597 5594 5590 5587 5584 5581 5578 5576 5572 5569
5584 5586 5586 5587 5588 5589 5590 5592 5592 5592 5592 5592 5591 5591 5591 5590 5590 5591 5589 5591 5594 5595 5596 5596 5597 5598 5598 5597 5596 5594 5593 5591 5588 5585 5582 5580 5577 5574 5571 5568 5565 5562 5558 5554
5578 5578 5578 5579 5580 5581 5581 5582 5583 5584 5584 5584 5584 5584 5584 5583 5582 5582 5583 5584 5585 5586 5585 5584 5586 5586 5585 5584 5582 5580 5579 5576 5574 5571 5569 5566 5563 5560 5557 5554 5550 5546 5542 5538
5570 5570 5570 5571 5571 5571 5572 5573 5574 5574 5575 5575 5575 5575 5576 5575 5574 5574 5574 5575 5575 5575 5574 5574 5574 5573 5572 5570 5569 5566 5564 5562 5560 5557 5555 5552 5549 5545 5542 5538 5534 5530 5526 5522
5562 5562 5562 5563 5563 5563 5564 5565 5565 5565 5566 5565 5564 5565 5565 5566 5566 5566 5565 5565 5564 5563 5562 5562 5561 5559 5558 5556 5554 5552 5549 5547 5545 5542 5539 5537 5534 5530 5527 5523 5520 5516 5512 5508
5555 5555 5555 5555 5555 5556 5557 5557 5556 5556 5556 5556 5555 5555 5556 5556 5556 5555 5555 5554 5553 5551 5550 5549 5548 5546 5544 5541 5539 5537 5534 5532 5529 5526 5524 5521 5518 5515 5511 5509 5505 5501 5498 5494